DateTime,F1_A11,F1_S11,BsB_S11,BsG_S11,BsR_S11,BbsB_S11,BbsG_S11,BbsR_S11,BaB_A11,BaG_A11,BaR_A11,T_S11,U_S11,P_S11,T1_A11
2016-12-01T00:00:00Z,0000380,21000600,,,,,,,,,,25.6,00.0,0644.5,34.6
2016-12-01T00:01:00Z,0000380,21000600,,,,,,,,,,25.7,00.0,0644.5,34.6
2016-12-01T00:02:00Z,0000380,21000600,,,,,,,,,,25.7,00.0,0644.5,34.6
2016-12-01T00:03:00Z,0000380,61000600,,,,,,,,,,25.7,00.0,0644.5,34.6
2016-12-01T00:04:00Z,0000380,41000600,-000.75,0000.36,-000.23,0000.01,-000.17,-000.32,-000.12,0000.04,-000.21,25.7,00.0,0645.4,34.6
2016-12-01T00:05:00Z,0000380,01000600,-000.35,-000.48,-000.13,-000.88,-000.13,-000.38,0000.23,-000.12,0000.41,25.7,00.0,0645.4,34.6
2016-12-01T00:06:00Z,0000380,01000600,-000.67,-000.06,0000.29,0000.33,0000.02,-000.31,-000.06,-000.11,-000.40,25.6,00.0,0645.5,34.6
2016-12-01T00:07:00Z,0000380,01000600,-000.05,0000.26,0000.15,-000.66,-000.19,-000.04,-000.04,0000.03,0000.08,25.6,00.0,0645.5,34.6
2016-12-01T00:08:00Z,0000380,01000600,-000.37,0000.29,-000.48,-000.08,-000.07,-000.17,0000.06,0000.14,0000.00,25.6,00.0,0645.5,34.6
2016-12-01T00:09:00Z,0000380,01000600,0000.34,0000.05,0000.07,0000.63,-000.14,-000.28,0000.11,0000.00,-000.01,25.6,00.0,0645.4,34.6
2016-12-01T00:10:00Z,0000380,01000600,-000.45,0000.60,0000.15,0000.22,-000.32,0000.02,-000.01,0000.06,0000.24,25.6,00.0,0645.4,34.6
2016-12-01T00:11:00Z,0000380,01000600,0000.55,-000.99,-000.19,-000.34,-000.23,-000.25,0000.02,-000.08,-000.16,25.6,00.0,0645.5,34.6
2016-12-01T00:12:00Z,0000380,01000600,0000.74,-000.27,-000.84,-000.02,0000.09,-000.36,-000.14,-000.19,-000.21,25.6,00.0,0645.6,34.6
2016-12-01T00:13:00Z,0000380,01000600,0000.47,0000.30,-000.09,0000.38,0000.38,0000.11,-000.01,-000.11,-000.14,25.6,00.0,0645.6,34.6
2016-12-01T00:14:00Z,0000380,01000600,0000.24,-000.26,0000.33,-000.17,-000.18,-000.00,0000.00,0000.02,0000.40,25.6,00.0,0645.6,34.6
2016-12-01T00:15:00Z,0000380,01000600,-000.79,-000.02,-000.31,0000.20,-000.07,-000.06,0000.05,-000.07,0000.01,25.6,00.0,0645.5,34.6
2016-12-01T00:16:00Z,0000380,01000600,-000.17,0000.19,-000.48,-000.09,0000.30,-000.24,-000.11,0000.17,-000.28,25.6,00.0,0645.5,34.6
2016-12-01T00:17:00Z,0000380,01000600,-000.06,0000.64,-000.39,0000.22,0000.13,-000.59,0000.01,0000.13,0000.28,25.7,00.0,0645.5,34.6
2016-12-01T00:18:00Z,0000380,01000600,0001.09,0000.08,-000.24,0000.14,0000.14,-000.42,0000.09,-000.05,-000.02,25.7,00.0,0645.5,34.7
2016-12-01T00:19:00Z,0000380,01000600,-000.10,0000.14,0000.12,-000.10,0000.01,-000.12,0000.07,0000.28,-000.03,25.7,00.0,0645.4,34.7
2016-12-01T00:20:00Z,0000380,01000600,0001.05,0000.41,0000.29,-000.09,-000.07,-000.39,-000.13,-000.08,0000.18,25.7,00.0,0645.4,34.7
2016-12-01T00:21:00Z,0000380,01000600,0000.96,0000.07,0000.34,0000.03,-000.36,-000.16,0000.07,-000.07,-000.07,25.7,00.0,0645.4,34.6
2016-12-01T00:22:00Z,0000380,01000600,-000.26,-000.09,-000.29,-000.34,-000.09,0000.05,-000.09,0000.03,-000.11,25.7,00.0,0645.4,34.6
2016-12-01T00:23:00Z,0000380,01000600,0000.10,0000.90,-000.16,0000.20,-000.33,0000.07,0000.19,0000.13,0000.04,25.7,00.0,0645.4,34.6
2016-12-01T00:24:00Z,0000380,01000600,-000.75,-000.06,-000.23,0000.07,0000.22,-000.02,-000.16,-000.19,-000.00,25.7,00.0,0645.3,34.6
2016-12-01T00:25:00Z,0000380,01000600,0001.14,0000.01,-000.64,-000.16,0000.16,-000.02,0000.10,0000.17,0000.01,25.6,00.0,0645.3,34.6
2016-12-01T00:26:00Z,0000380,01000600,-000.24,-000.41,0000.03,-000.16,-000.03,-000.21,0000.05,-000.19,-000.00,25.6,00.0,0645.3,34.6
2016-12-01T00:27:00Z,0000380,01000600,-000.18,0000.49,-000.22,0000.23,0000.31,-000.16,-000.05,0000.03,-000.21,25.7,00.0,0645.4,34.6
2016-12-01T00:28:00Z,0000380,01000600,-000.45,0000.04,-000.30,-000.22,-000.43,-000.23,0000.02,-000.02,0000.26,25.6,00.0,0645.3,34.6
2016-12-01T00:29:00Z,0000380,01000600,0001.08,0000.22,-000.09,-000.59,-000.21,-000.10,0000.02,0000.07,0000.10,25.6,00.0,0645.3,34.6
2016-12-01T00:30:00Z,0000380,01000600,0000.68,-000.05,-000.02,-000.16,-000.31,0000.07,0000.02,-000.05,-000.32,25.7,00.0,0645.3,34.7
2016-12-01T00:31:00Z,0000380,01000600,0000.24,0000.09,-000.11,-000.04,0000.20,-000.01,-000.09,0000.05,0000.01,25.7,00.0,0645.4,34.7
2016-12-01T00:32:00Z,0000380,01000600,0000.28,0000.09,0000.28,-001.06,-000.10,-000.02,0000.05,-000.10,-000.01,25.8,00.0,0645.5,34.7
2016-12-01T00:33:00Z,0000380,01000600,0000.28,0000.27,0000.47,-000.50,-000.11,0000.31,0000.17,0000.26,0000.36,25.8,00.0,0645.5,34.7
2016-12-01T00:34:00Z,0000380,01000600,-001.42,-000.16,0000.04,0000.03,0000.32,-000.21,-000.09,-000.18,-000.05,25.8,00.0,0645.5,34.7
2016-12-01T00:35:00Z,0000380,01000600,-000.68,-000.21,0000.21,0000.09,-000.29,-000.36,0000.04,0000.09,0000.19,25.8,00.0,0645.6,34.7
2016-12-01T00:36:00Z,0000380,01000600,-000.50,-000.07,0000.16,-000.10,0000.27,-000.14,-000.14,0000.03,-000.07,25.8,00.0,0645.6,34.7
2016-12-01T00:37:00Z,0000380,01000600,0000.11,0000.17,-000.29,-000.20,0000.34,-000.17,0000.01,0000.00,-000.13,25.8,00.0,0645.6,34.6
2016-12-01T00:38:00Z,0000380,01000600,0000.03,0000.95,0000.13,0000.70,0000.08,-000.06,-000.04,0000.04,-000.07,25.8,00.0,0645.6,34.6
2016-12-01T00:39:00Z,0000380,01000600,0000.10,0000.26,0000.03,0000.48,0000.36,-000.10,0000.19,0000.12,0000.07,25.8,00.0,0645.7,34.6
2016-12-01T00:40:00Z,0000380,01000600,-000.13,-000.12,0000.13,0000.27,0000.01,-000.19,0000.16,-000.13,-000.05,25.8,00.0,0645.6,34.6
2016-12-01T00:41:00Z,0000380,01000600,0000.03,-000.76,-000.03,-000.13,0000.01,0000.07,-000.03,-000.06,-000.03,25.8,00.0,0645.6,34.6
2016-12-01T00:42:00Z,0000380,01000600,-000.99,-000.29,-000.40,0000.11,-000.38,-000.46,-000.22,-000.06,0000.15,25.8,00.0,0645.6,34.6
2016-12-01T00:43:00Z,0000380,01000600,-000.57,0000.20,0000.08,-000.18,0000.00,-000.09,0000.25,0000.03,0000.08,25.8,00.0,0645.6,34.6
2016-12-01T00:44:00Z,0000380,01000600,-000.97,-000.13,0000.21,0000.32,0000.13,-000.12,-000.17,0000.02,-000.39,25.8,00.0,0645.5,34.6
2016-12-01T00:45:00Z,0000380,01000600,0000.57,-000.20,-000.02,-000.17,-000.60,0000.02,-000.00,-000.07,0000.13,25.8,00.0,0645.5,34.6
2016-12-01T00:46:00Z,0000380,01000600,0000.08,0000.03,-000.26,-000.94,-000.07,-000.12,-000.01,0000.38,0000.32,25.8,00.0,0645.5,34.6
2016-12-01T00:47:00Z,0000380,01000600,0000.56,-000.24,-000.32,-000.02,-000.28,-000.26,0000.01,-000.15,0000.06,25.9,00.0,0645.4,34.6
2016-12-01T00:48:00Z,0000380,01000600,0000.37,0000.73,0000.11,-000.16,0000.29,-000.01,0000.08,0000.10,-000.17,25.8,00.0,0645.4,34.6
2016-12-01T00:49:00Z,0000380,01000600,-000.64,0000.08,0000.26,0000.44,-000.33,-000.12,0000.08,-000.13,-000.29,25.8,00.0,0645.4,34.6
2016-12-01T00:50:00Z,0000380,01000600,0001.00,0000.24,0000.11,-000.33,-000.23,0000.05,-000.05,0000.05,0000.26,25.8,00.0,0645.5,34.6
2016-12-01T00:51:00Z,0000380,01000600,0000.09,-000.26,-000.11,-000.41,0000.01,0000.02,0000.20,-000.07,-000.22,25.8,00.0,0645.4,34.6
2016-12-01T00:52:00Z,0000380,01000600,-000.48,-000.03,-000.24,0000.73,0000.15,-000.17,-000.15,0000.32,0000.24,25.8,00.0,0645.4,34.6
2016-12-01T00:53:00Z,0000380,01000600,-000.06,0000.53,-000.21,-000.09,0000.08,-000.21,-000.08,-000.08,-000.19,25.8,00.0,0645.4,34.6
2016-12-01T00:54:00Z,0000380,01000600,0000.55,-000.13,-000.06,-000.42,0000.38,-000.24,0000.05,-000.08,0000.19,25.8,00.0,0645.4,34.6
2016-12-01T00:55:00Z,0000380,01000600,0000.21,0000.63,-000.08,-000.08,-000.15,-000.43,-000.04,0000.06,0000.29,25.7,00.0,0645.4,34.6
2016-12-01T00:56:00Z,0000380,01000600,0000.34,-000.11,-000.22,0000.36,0000.16,-000.51,0000.33,-000.22,-000.35,25.7,00.0,0645.3,34.6
2016-12-01T00:57:00Z,0000380,41000600,,,,,,,,,,25.7,00.0,0645.3,34.6
2016-12-01T00:58:00Z,0000380,61000600,,,,,,,,,,25.7,00.0,0644.3,34.6
2016-12-01T00:59:00Z,0000380,21000600,,,,,,,,,,25.7,00.0,0644.3,34.6
2016-12-01T01:00:00Z,0000380,21000600,,,,,,,,,,25.7,00.0,0644.3,34.6
2016-12-01T01:01:00Z,0000380,21000600,,,,,,,,,,25.8,00.0,0644.4,34.6
2016-12-01T01:02:00Z,0000380,21000600,,,,,,,,,,25.8,00.0,0644.4,34.6
2016-12-01T01:03:00Z,0000380,61000600,,,,,,,,,,25.8,00.0,0644.4,34.6
2016-12-01T01:04:00Z,0000380,41000600,0000.37,0000.10,0000.48,0000.38,0000.02,0000.11,0000.07,-000.03,-000.13,25.8,00.0,0645.3,34.6
2016-12-01T01:05:00Z,0000380,01000600,-000.63,-000.03,0000.28,0000.62,0000.05,0000.08,0000.18,0000.00,0000.23,25.8,00.0,0645.4,34.6
2016-12-01T01:06:00Z,0000380,01000600,0000.28,-000.79,0000.42,-000.15,0000.12,0000.23,-000.17,0000.14,0000.20,25.7,00.0,0645.4,34.6
2016-12-01T01:07:00Z,0000380,01000600,-000.10,-000.09,0000.09,-000.20,-000.06,-000.13,-000.29,-000.18,-000.28,25.7,00.0,0645.4,34.6
2016-12-01T01:08:00Z,0000380,01000600,0000.02,0000.37,0000.34,0000.02,0000.11,0000.10,0000.28,-000.01,0000.09,25.7,00.0,0645.4,34.6
2016-12-01T01:09:00Z,0000380,01000600,-000.60,0000.56,-000.31,-000.15,0000.57,-000.03,-000.11,-000.03,0000.18,25.7,00.0,0645.4,34.6
2016-12-01T01:10:00Z,0000380,01000600,0000.42,-000.12,0000.08,0000.75,0000.15,0000.21,0000.17,0000.18,-000.06,25.7,00.0,0645.4,34.6
2016-12-01T01:11:00Z,0000380,01000600,0000.36,-000.46,0000.21,-000.19,0000.30,-000.29,0000.00,-000.19,-000.30,25.6,00.0,0645.5,34.6
2016-12-01T01:12:00Z,0000380,01000600,-000.52,0000.07,-000.29,-000.06,0000.26,-000.14,0000.06,-000.09,0000.10,25.6,00.0,0645.5,34.6
2016-12-01T01:13:00Z,0000380,01000600,-000.87,-000.33,-000.16,0000.32,-000.30,-000.51,-000.14,0000.01,0000.02,25.6,00.0,0645.6,34.6
2016-12-01T01:14:00Z,0000380,01000600,0000.28,-000.21,-000.28,0000.22,-000.00,-000.19,-000.07,-000.04,-000.03,25.6,00.0,0645.5,34.6
2016-12-01T01:15:00Z,0000380,01000600,-000.07,0000.20,-000.01,0000.08,-000.31,-000.09,-000.01,-000.13,0000.17,25.7,00.0,0645.5,34.6
2016-12-01T01:16:00Z,0000380,01000600,-000.26,0000.12,-000.14,0000.37,0000.08,-000.18,0000.07,0000.15,-000.30,25.7,00.0,0645.5,34.6
2016-12-01T01:17:00Z,0000380,01000600,0000.88,-000.40,0000.13,0000.32,0000.11,-000.17,-000.04,0000.13,0000.06,25.7,00.0,0645.6,34.6
2016-12-01T01:18:00Z,0000380,01000600,-000.97,0000.04,-000.62,0000.46,-000.01,0000.33,0000.03,0000.13,0000.27,25.7,00.0,0645.7,34.6
2016-12-01T01:19:00Z,0000380,01000600,0000.70,0000.45,0000.31,-000.00,0000.40,0000.29,-000.08,-000.05,-000.35,25.7,00.0,0645.7,34.6
2016-12-01T01:20:00Z,0000380,01000600,-000.66,0000.04,0000.19,0000.15,-000.16,-000.12,0000.14,0000.09,0000.41,25.7,00.0,0645.5,34.6
2016-12-01T01:21:00Z,0000380,01000600,-000.32,0000.73,0000.45,0000.48,-000.50,0000.17,-000.19,0000.05,0000.01,25.7,00.0,0645.6,34.6
2016-12-01T01:22:00Z,0000380,01000600,-000.36,-000.45,-000.12,0000.37,0000.10,0000.11,0000.27,-000.12,-000.05,25.7,00.0,0645.6,34.6
2016-12-01T01:23:00Z,0000380,01000600,-000.10,0000.20,0000.34,0000.67,-000.08,0000.06,-000.04,-000.03,-000.05,25.7,00.0,0645.6,34.6
2016-12-01T01:24:00Z,0000380,01000600,-000.07,0000.27,-000.10,0000.01,0000.31,-000.20,-000.15,-000.06,0000.06,25.7,00.0,0645.6,34.6
2016-12-01T01:25:00Z,0000380,01000600,0000.74,0000.24,0000.44,-000.06,-000.23,0000.09,0000.00,-000.00,-000.11,25.6,00.0,0645.6,34.6
2016-12-01T01:26:00Z,0000380,01000600,0000.19,-000.30,0000.28,0000.74,0000.05,0000.30,0000.17,-000.07,-000.17,25.6,00.0,0645.6,34.6
2016-12-01T01:27:00Z,0000380,01000600,0000.01,-000.12,0000.34,-000.09,0000.01,0000.25,0000.05,-000.11,0000.34,25.6,00.0,0645.6,34.6
2016-12-01T01:28:00Z,0000380,01000600,0000.93,0000.63,-000.14,0000.44,0000.38,-000.29,-000.02,0000.11,-000.22,25.6,00.0,0645.6,34.6
2016-12-01T01:29:00Z,0000380,01000600,-000.71,0000.33,0000.08,0000.38,0000.24,0000.17,-000.05,0000.03,0000.09,25.7,00.0,0645.7,34.6
2016-12-01T01:30:00Z,0000380,01000600,0000.34,0000.30,0000.20,0000.17,0000.08,-000.34,0000.05,-000.04,0000.02,25.7,00.0,0645.6,34.6
2016-12-01T01:31:00Z,0000380,01000600,-000.87,0000.52,-000.06,0000.09,-000.13,-000.12,-000.17,0000.02,-000.03,25.7,00.0,0645.6,34.6
2016-12-01T01:32:00Z,0000380,01000600,0000.16,0000.13,-000.08,0000.83,-000.07,0000.13,0000.17,-000.01,0000.19,25.7,00.0,0645.6,34.7
2016-12-01T01:33:00Z,0000380,01000600,-000.19,0000.15,0000.13,0000.15,0000.36,0000.24,-000.05,-000.03,-000.02,25.7,00.0,0645.6,34.6
2016-12-01T01:34:00Z,0000380,01000600,-000.14,-000.33,0000.09,0000.33,-000.33,-000.38,-000.11,0000.26,-000.08,25.8,00.0,0645.6,34.6
2016-12-01T01:35:00Z,0000380,01000600,0000.52,-000.08,0000.11,0000.14,0000.07,0000.27,0000.06,-000.05,0000.16,25.8,00.0,0645.5,34.6
2016-12-01T01:36:00Z,0000380,01000600,0000.49,0000.13,-000.19,0000.33,-000.12,-000.01,0000.10,0000.08,-000.20,25.8,00.0,0645.4,34.6
2016-12-01T01:37:00Z,0000380,01000600,-000.89,-000.51,-000.27,-000.55,0000.01,0000.20,0000.08,0000.11,0000.22,25.8,00.0,0645.4,34.6
2016-12-01T01:38:00Z,0000380,01000600,-000.53,-000.40,0000.17,-000.01,-000.22,-000.44,-000.01,0000.04,-000.15,25.7,00.0,0645.4,34.6
2016-12-01T01:39:00Z,0000380,01000600,0000.35,-000.13,-000.24,-000.46,-000.12,-000.10,0000.08,-000.10,0000.17,25.7,00.0,0645.3,34.6
2016-12-01T01:40:00Z,0000380,01000600,-000.16,0000.13,-000.40,0000.24,-000.17,-000.23,0000.04,0000.16,-000.25,25.7,00.0,0645.4,34.6
2016-12-01T01:41:00Z,0000380,01000600,-000.09,-000.17,0000.13,-000.16,0000.07,0000.27,0000.04,-000.26,-000.05,25.7,00.0,0645.4,34.6
2016-12-01T01:42:00Z,0000380,01000600,-000.21,0000.35,0000.33,0000.60,-000.41,0000.12,-000.09,-000.12,-000.04,25.6,00.0,0645.5,34.6
2016-12-01T01:43:00Z,0000380,01000600,0000.23,-000.01,-000.20,0000.09,0000.24,-000.08,-000.00,0000.04,-000.03,25.6,00.0,0645.4,34.6
2016-12-01T01:44:00Z,0000380,01000600,-001.24,0000.37,0000.06,-000.42,-000.13,-000.07,0000.15,-000.06,0000.02,25.7,00.0,0645.4,34.6
2016-12-01T01:45:00Z,0000380,01000600,-000.31,0000.66,-000.05,0000.05,-000.27,-000.29,-000.37,0000.06,0000.31,25.7,00.0,0645.4,34.6
2016-12-01T01:46:00Z,0000380,01000600,0000.47,-000.32,0000.05,0000.55,-000.35,0000.15,0000.23,-000.04,-000.18,25.7,00.0,0645.4,34.6
2016-12-01T01:47:00Z,0000380,01000600,-000.21,0000.60,-000.10,-000.01,-000.44,0000.35,0000.13,0000.14,-000.07,25.7,00.0,0645.3,34.6
2016-12-01T01:48:00Z,0000380,01000600,-000.39,0000.09,0000.24,-000.04,0000.26,0000.14,-000.23,-000.05,-000.07,25.7,00.0,0645.3,34.6
2016-12-01T01:49:00Z,0000380,01000600,-000.63,0000.05,-000.23,-000.41,0000.02,0000.09,0000.28,0000.26,0000.37,25.8,00.0,0645.2,34.6
2016-12-01T01:50:00Z,0000380,01000600,0001.14,-000.23,-000.21,-000.33,-000.04,0000.36,-000.16,0000.03,-000.24,25.8,00.0,0645.2,34.6
2016-12-01T01:51:00Z,0000380,01000600,0000.35,-000.06,0000.31,0000.65,0000.05,0000.20,0000.21,0000.12,0000.28,25.8,00.0,0645.2,34.6
2016-12-01T01:52:00Z,0000380,01000600,0000.39,0000.14,0000.23,0000.04,-000.09,-000.10,0000.05,-000.10,-000.24,25.7,00.0,0645.1,34.6
2016-12-01T01:53:00Z,0000380,01000600,-000.40,-000.23,-000.37,0000.55,-000.22,0000.12,-000.07,-000.06,-000.07,25.7,00.0,0645.1,34.6
2016-12-01T01:54:00Z,0000380,01000600,-000.82,0000.21,0000.24,-000.47,0000.43,-000.04,-000.00,0000.17,0000.42,25.7,00.0,0645.1,34.6
2016-12-01T01:55:00Z,0000380,01000600,-000.43,-000.48,-000.15,-000.18,-000.28,0000.08,0000.16,-000.06,-000.35,25.7,00.0,0645.2,34.6
2016-12-01T01:56:00Z,0000380,01000600,-000.54,0000.19,0000.08,-000.24,0000.03,-000.00,-000.05,-000.19,-000.27,25.6,00.0,0645.2,34.6
2016-12-01T01:57:00Z,0000380,41000600,,,,,,,,,,25.7,00.0,0645.1,34.6
2016-12-01T01:58:00Z,0000380,61000600,,,,,,,,,,25.6,00.0,0644.3,34.6
2016-12-01T01:59:00Z,0000380,21000600,,,,,,,,,,25.6,00.0,0644.3,34.6
2016-12-01T02:00:00Z,0000380,21000600,,,,,,,,,,25.7,00.0,0644.3,34.6
2016-12-01T02:01:00Z,0000380,21000600,,,,,,,,,,25.7,00.0,0644.3,34.6
2016-12-01T02:02:00Z,0000380,21000600,,,,,,,,,,25.7,00.0,0644.3,34.6
2016-12-01T02:03:00Z,0000380,61000600,,,,,,,,,,25.7,00.0,0644.2,34.7
2016-12-01T02:04:00Z,0000380,41000600,-000.27,-000.46,0000.31,0000.37,-000.13,-000.00,0000.12,0000.25,-000.02,25.7,00.0,0644.9,34.6
2016-12-01T02:05:00Z,0000380,01000600,-000.14,-000.30,0000.33,0000.50,-000.13,0000.19,0000.10,0000.11,-000.11,25.8,00.0,0645.0,34.6
2016-12-01T02:06:00Z,0000380,01000600,-000.06,0000.09,0000.43,0000.16,-000.04,0000.13,-000.18,-000.15,-000.16,25.8,00.0,0645.0,34.6
2016-12-01T02:07:00Z,0000380,01000600,-000.39,0001.07,0000.01,0000.22,-000.38,-000.29,0000.05,0000.07,0000.11,25.8,00.0,0645.1,34.6
2016-12-01T02:08:00Z,0000380,01000600,0001.02,-000.50,-000.19,-000.17,0000.27,-000.18,0000.10,0000.10,0000.21,25.7,00.0,0645.1,34.6
2016-12-01T02:09:00Z,0000380,01000600,0000.96,0000.65,0000.11,0000.44,0000.10,-000.16,0000.12,0000.05,-000.11,25.7,00.0,0645.1,34.6
2016-12-01T02:10:00Z,0000380,01000600,0000.26,-000.16,0000.33,-000.14,-000.27,-000.02,-000.20,-000.01,-000.31,25.7,00.0,0645.1,34.6
2016-12-01T02:11:00Z,0000380,01000600,-000.14,-000.09,0000.53,0000.58,0000.08,0000.11,0000.21,-000.20,0000.14,25.6,00.0,0645.1,34.6
2016-12-01T02:12:00Z,0000380,01000600,0000.40,0000.29,0000.88,0000.12,-000.22,0000.05,-000.10,-000.17,-000.08,25.6,00.0,0645.1,34.6
2016-12-01T02:13:00Z,0000380,01000600,-000.39,0000.81,0000.20,0000.79,-000.20,0000.10,0000.05,0000.09,-000.24,25.6,00.0,0645.0,34.6
2016-12-01T02:14:00Z,0000380,01000600,0000.43,0000.55,0000.03,-000.20,0000.00,-000.05,-000.03,0000.03,0000.40,25.6,00.0,0645.0,34.6
2016-12-01T02:15:00Z,0000380,01000600,0001.12,0001.02,0000.37,0000.55,-000.18,-000.29,0000.03,0000.00,-000.12,25.7,00.0,0644.9,34.6
2016-12-01T02:16:00Z,0000380,01000600,0000.91,0000.26,-000.02,0000.57,-000.29,0000.02,0000.04,0000.08,-000.03,25.7,00.0,0644.8,34.6
2016-12-01T02:17:00Z,0000380,01000600,-000.05,0000.19,0000.26,0000.19,-000.12,0000.30,-000.08,0000.04,-000.05,25.7,00.0,0644.8,34.6
2016-12-01T02:18:00Z,0000380,01000600,-000.02,0000.20,-000.11,0000.43,-000.03,-000.23,0000.04,-000.06,0000.07,25.7,00.0,0644.9,34.6
2016-12-01T02:19:00Z,0000380,01000600,0000.03,0000.15,-000.04,0000.25,-000.05,-000.27,0000.00,0000.08,0000.41,25.8,00.0,0644.9,34.6
2016-12-01T02:20:00Z,0000380,01000600,-000.01,0000.27,0000.16,0000.26,-000.07,-000.07,0000.10,0000.06,-000.35,25.7,00.0,0644.9,34.6
2016-12-01T02:21:00Z,0000380,01000600,-000.18,-000.14,0000.11,0000.62,-000.49,-000.05,-000.03,0000.01,-000.07,25.7,00.0,0644.7,34.6
2016-12-01T02:22:00Z,0000380,01000600,0000.52,-000.09,0000.66,0000.55,0000.00,0000.02,0000.23,0000.25,0000.26,25.7,00.0,0644.6,34.6
2016-12-01T02:23:00Z,0000380,01000600,0000.59,-000.29,0000.09,0000.46,-000.00,0000.08,0000.02,-000.03,-000.30,25.7,00.0,0644.7,34.6
2016-12-01T02:24:00Z,0000380,01000600,0000.16,0000.96,-000.00,0000.19,-000.02,-000.01,-000.18,-000.05,0000.50,25.7,00.0,0644.8,34.6
2016-12-01T02:25:00Z,0000380,01000600,0000.38,0000.26,0000.77,0000.47,-000.05,0000.30,0000.30,0000.01,-000.18,25.7,00.0,0644.8,34.6
2016-12-01T02:26:00Z,0000380,01000600,0000.18,0000.66,0000.73,-000.23,0000.09,0000.12,-000.35,-000.21,-000.50,25.6,00.0,0644.9,34.6
2016-12-01T02:27:00Z,0000380,01000600,-000.89,0000.03,0000.79,0000.29,0000.03,0000.23,0000.07,-000.16,-000.06,25.6,00.0,0645.0,34.6
2016-12-01T02:28:00Z,0000380,01000600,0000.18,0000.62,0000.58,0000.35,0000.34,0000.59,-000.13,-000.00,0000.13,25.6,00.0,0645.1,34.6
2016-12-01T02:29:00Z,0000380,01000600,0000.57,0000.22,-000.30,0001.08,-000.08,-000.23,-000.10,-000.11,-000.07,25.6,00.0,0645.1,34.6
2016-12-01T02:30:00Z,0000380,01000600,0000.25,0000.68,0000.21,0000.75,-000.02,-000.04,0000.05,0000.03,0000.04,25.7,00.0,0645.1,34.6
2016-12-01T02:31:00Z,0000380,01000600,-000.46,0001.54,0000.12,0000.24,-000.43,-000.12,0000.07,0000.03,0000.24,25.7,00.0,0645.2,34.6
2016-12-01T02:32:00Z,0000380,01000600,0000.29,0000.37,0000.18,0000.47,-000.21,-000.04,-000.06,0000.04,-000.34,25.7,00.0,0645.2,34.6
2016-12-01T02:33:00Z,0000380,01000600,0000.57,0000.60,0000.18,0000.25,0000.19,-000.10,-000.15,0000.00,0000.24,25.7,00.0,0645.2,34.7
2016-12-01T02:34:00Z,0000380,01000600,0000.07,0000.53,0000.07,0000.10,0000.17,-000.18,-000.04,-000.19,0000.05,25.8,00.0,0645.2,34.7
2016-12-01T02:35:00Z,0000380,01000600,0001.14,0000.14,0000.62,0000.75,-000.21,0000.06,0000.08,0000.38,0000.10,25.8,00.0,0645.2,34.7
2016-12-01T02:36:00Z,0000380,01000600,0000.89,0000.22,0000.65,0000.66,-000.32,-000.18,-000.02,-000.22,-000.09,25.8,00.0,0645.2,34.6
2016-12-01T02:37:00Z,0000380,01000600,0000.07,0000.09,0000.25,0000.44,-000.18,0000.03,0000.05,0000.24,0000.11,25.8,00.0,0645.2,34.6
2016-12-01T02:38:00Z,0000380,01000600,0000.44,-000.26,0000.21,0000.08,-000.13,-000.04,-000.12,-000.10,-000.01,25.8,00.0,0645.1,34.6
2016-12-01T02:39:00Z,0000380,01000600,0000.74,0000.11,0000.14,0000.54,-000.13,0000.01,0000.07,-000.10,-000.22,25.7,00.0,0645.2,34.6
2016-12-01T02:40:00Z,0000380,01000600,0000.17,0000.25,-000.17,0000.59,0000.45,-000.02,0000.06,0000.19,0000.18,25.7,00.0,0645.2,34.6
2016-12-01T02:41:00Z,0000380,01000600,-000.17,-000.16,0000.16,0000.56,0000.34,0000.30,0000.02,-000.18,-000.13,25.7,00.0,0645.2,34.6
2016-12-01T02:42:00Z,0000380,01000600,0000.57,0000.00,0000.23,0000.33,-000.18,-000.12,-000.08,-000.17,0000.14,25.7,00.0,0645.2,34.6
2016-12-01T02:43:00Z,0000380,01000600,0000.42,0000.08,0000.27,0000.62,0000.09,0000.18,-000.21,-000.09,-000.35,25.7,00.0,0645.2,34.6
2016-12-01T02:44:00Z,0000380,01000600,0000.15,0000.45,0000.19,0000.55,0000.05,0000.24,0000.02,0000.02,0000.34,25.8,00.0,0645.2,34.6
2016-12-01T02:45:00Z,0000380,01000600,0000.33,0000.09,0000.52,0000.18,-000.28,0000.33,-000.10,-000.07,-000.25,25.8,00.0,0645.2,34.6
2016-12-01T02:46:00Z,0000380,01000600,-000.35,0000.01,-000.09,0000.42,-000.00,-000.10,0000.31,0000.13,0000.12,25.8,00.0,0645.2,34.7
2016-12-01T02:47:00Z,0000380,01000600,0000.70,-000.07,0000.33,0000.63,-000.13,-000.00,-000.14,0000.19,-000.04,25.8,00.0,0645.1,34.6
2016-12-01T02:48:00Z,0000380,01000600,0000.24,0000.32,-000.21,0000.98,-000.13,-000.22,-000.01,0000.04,0000.10,25.8,00.0,0645.0,34.7
2016-12-01T02:49:00Z,0000380,01000600,0000.08,0000.40,-000.04,0000.11,-000.11,-000.38,-000.09,-000.00,0000.33,25.8,00.0,0645.0,34.6
2016-12-01T02:50:00Z,0000380,01000600,-000.19,0000.25,0000.39,0000.52,0000.00,-000.15,0000.08,0000.02,-000.04,25.8,00.0,0645.0,34.6
2016-12-01T02:51:00Z,0000380,01000600,0000.00,-000.06,0000.26,0000.03,-000.06,0000.07,-000.03,-000.07,0000.01,25.8,00.0,0645.1,34.6
2016-12-01T02:52:00Z,0000380,01000600,0000.24,-000.05,0000.46,-000.17,-000.07,0000.15,-000.03,0000.08,-000.14,25.8,00.0,0645.0,34.6
2016-12-01T02:53:00Z,0000380,01000600,0000.26,0000.60,-000.13,-000.12,-000.52,-000.24,0000.14,-000.15,0000.07,25.8,00.0,0645.0,34.6
2016-12-01T02:54:00Z,0000380,01000600,0000.41,-000.17,0000.04,-000.05,0000.16,0000.18,0000.04,0000.19,-000.26,25.8,00.0,0645.0,34.6
2016-12-01T02:55:00Z,0000380,01000600,-000.35,0000.14,-000.53,-000.06,-000.12,-000.19,-000.13,-000.04,0000.10,25.8,00.0,0645.1,34.6
2016-12-01T02:56:00Z,0000380,01000600,-000.56,0000.35,0000.12,0000.52,-000.35,-000.20,0000.08,-000.13,-000.04,25.7,00.0,0645.1,34.6
2016-12-01T02:57:00Z,0000380,41000600,,,,,,,,,,25.8,00.0,0645.1,34.6
2016-12-01T02:58:00Z,0000380,61000600,,,,,,,,,,25.7,00.0,0644.1,34.6
2016-12-01T02:59:00Z,0000380,21000600,,,,,,,,,,25.8,00.0,0644.1,34.6
2016-12-01T03:00:00Z,0000380,21000600,,,,,,,,,,25.8,00.0,0644.1,34.6
2016-12-01T03:01:00Z,0000380,21000600,,,,,,,,,,25.8,00.0,0644.1,34.6
2016-12-01T03:02:00Z,0000380,21000600,,,,,,,,,,25.8,00.0,0644.1,34.6
2016-12-01T03:03:00Z,0000380,61000600,,,,,,,,,,25.8,00.0,0644.1,34.6
2016-12-01T03:04:00Z,0000380,41000600,0000.19,0000.19,-000.21,-000.37,-000.06,0000.01,-000.13,-000.17,0000.05,25.8,00.0,0644.7,34.6
2016-12-01T03:05:00Z,0000380,01000600,-000.41,0000.27,0000.34,-000.19,0000.39,0000.19,0000.11,0000.21,0000.04,25.8,00.0,0644.8,34.6
2016-12-01T03:06:00Z,0000380,01000600,-000.39,0000.33,0000.03,0001.18,-000.05,0000.21,0000.22,-000.18,0000.19,25.8,00.0,0644.8,34.6
2016-12-01T03:07:00Z,0000380,01000600,-000.52,0000.03,0000.15,0000.41,-000.20,0000.27,-000.16,0000.02,-000.06,25.8,00.0,0644.8,34.6
2016-12-01T03:08:00Z,0000380,01000600,0000.40,0000.37,0000.31,0000.26,0000.30,0000.15,0000.11,0000.17,-000.18,25.7,00.0,0644.9,34.6
2016-12-01T03:09:00Z,0000380,01000600,0000.10,0000.38,0000.27,0000.25,0000.04,-000.13,-000.11,-000.19,0000.06,25.7,00.0,0644.9,34.6
2016-12-01T03:10:00Z,0000380,01000600,-000.04,0000.17,-000.15,0000.29,0000.17,0000.31,0000.02,0000.01,-000.11,25.7,00.0,0645.0,34.6
2016-12-01T03:11:00Z,0000380,01000600,0000.33,-000.27,-000.01,0000.21,0000.45,-000.17,-000.10,-000.23,0000.05,25.7,00.0,0645.1,34.6